Location: *
(45.4590°N, 16.3650°E)
Time: 12:13:29
(UTC+00:00)

Meteor 2-1 Rocket - Pass Details

Date: 17 January 2020
Orbit: 827 x 910 km, 81.3° (Epoch: 17 February)

Event Time Altitude Azimuth Distance (km) Brightness Sun altitude
Rises 17:21:58 0° 350° (N) 3,383 7.3 -17.6°
Reaches altitude 10° 17:24:23 10° 351° (N) 2,442 6.6 -18.0°
Maximum altitude 17:29:54 81° 80° (E) 844 4.0 -19.0°
Drops below altitude 10° 17:35:25 10° 167° (SSE) 2,435 6.6 -19.9°
Sets 17:37:49 0° 168° (SSE) 3,372 7.3 -20.3°
